Location: Bethel Church
(38.0159°N, 88.7292°W)
Time: 03:31:03
(UTC+00:00)

Cosmos 1814 Rocket - Pass Details

Date: 08 December 2021
Orbit: 745 x 787 km, 74.1° (Epoch: 21 January)

Event Time Altitude Azimuth Distance (km) Brightness Sun altitude
Rises 23:12:57 0° 202° (SSW) 3,223 8.0 -7.5°
Reaches altitude 10° 23:15:20 10° 205° (SSW) 2,294 7.2 -8.0°
Maximum altitude 23:20:32 71° 289° (WNW) 803 4.3 -8.9°
Drops below altitude 10° 23:25:41 10° 14° (NNE) 2,282 6.1 -9.8°
Sets 23:28:04 0° 16° (NNE) 3,206 6.9 -10.3°
